Flag for Germany Weather past 2 weeks in Bielefeld, North Rhine-Westphalia, Germany

Now
59 °F

Overcast.


Feels Like: 59 °F
Forecast: 56 / 66 °F
Wind: 2 mph from Southeast

Location: Bad Lippspringe

Current Time: Aug 29, 2014 at 11:16:24 PM

Latest Report: Aug 29, 2014 at 9:00 PM


Visibility: 13 mi

Pressure: 30.01 "Hg

Humidity: 91%

Dew point: 56 °F

Location of BielefeldLocation

Historic Weather in Bielefeld — Graph

°F

Bielefeld temperature yesterday

Maximum temperature yesterday: 72 °F (at 3:00 PM)
Minimum temperature yesterday: 47 °F (at 6:00 AM)
Average temperature yesterday: 61 °F

Past Weeks' High & Low Weather Summary

 TemperatureHumidityPressure
High72 °F (Aug 28, 3:00 PM)99% (Aug 27, 5:00 AM)30.09 "Hg (Aug 27, 5:00 AM)
Low42 °F (Aug 25, 7:00 AM)47% (Aug 20, 4:00 PM)29.65 "Hg (Aug 18, 10:00 AM)
Average57 °F79%29.92 "Hg
* Reported Aug 14 9:00 PM — Aug 29 9:00 PM, Bielefeld, Weather by CustomWeather, © 2014

Note: Actual official high and low records may vary slightly from our data, if they occured in-between our weather recording intervals... More about our weather records

Advertising

Bielefeld weather history for previous 24 hours

 ConditionsComfort  
Time TempWeatherWind HumidityBarometerVisibility
9:00 PM
Aug 29
59 °FOvercast.2 mph91%30.01 "Hg13 mi
8:00 PM62 °FOvercast.1 mph85%29.99 "Hg17 mi
7:00 PM62 °FScattered clouds.2 mph82%29.99 "Hg28 mi
6:00 PM62 °FOvercast.3 mph87%30.00 "Hg16 mi
5:00 PM61 °FLow clouds.3 mph90%30.01 "Hg12 mi
4:00 PM61 °FLight rain. Low clouds.6 mph90%30.02 "Hg2 mi
3:00 PM66 °FOvercast.7 mph80%30.00 "Hg11 mi
2:00 PM66 °FLight freezing rain. Overcast.6 mph73%29.99 "Hg12 mi
1:00 PM68 °FOvercast.6 mph71%29.98 "Hg15 mi
12:00 PM65 °FOvercast.6 mph75%29.99 "Hg12 mi
11:00 AM62 °FOvercast.3 mph84%29.99 "Hg9 mi
10:00 AM62 °FLow clouds.5 mph87%29.98 "Hg5 mi
9:00 AM61 °FFog.2 mph95%29.98 "Hg2 mi
8:00 AM60 °FFog.2 mph96%29.97 "Hg2 mi
7:00 AM60 °FOvercast.2 mph96%29.97 "Hg2 mi
6:00 AM61 °FLight freezing rain. Low clouds.5 mph91%29.96 "Hg2 mi
5:00 AM62 °FOvercast.2 mph90%29.95 "Hg8 mi
4:00 AM60 °FOvercast.No wind96%29.94 "Hg5 mi
3:00 AM59 °FRain. Overcast.1 mph95%29.96 "Hg0 mi
2:00 AM59 °FPassing clouds.1 mph91%29.96 "Hg14 mi
1:00 AM61 °FPassing clouds.2 mph86%29.96 "Hg19 mi
12:00 AM64 °FOvercast.1 mph82%29.96 "Hg17 mi
11:00 PM
Aug 28
64 °FOvercast.1 mph81%29.96 "Hg19 mi
Weather by CustomWeather, © 2014

See weather overviewHow to use our weather pages